Location: T�chigga el Be�da
(16.4766°N, 9.3887°W)
Time: 09:09:50
(UTC+00:00)

FALCON 9 R/B - Pass Details

Date: 27 February 2020
Orbit: 285 x 10155 km, 34.5° (Epoch: 28 March)

Event Time Altitude Azimuth Distance (km) Brightness Sun altitude
Rises 18:59:52 0° 296° (WNW) 11,577 9.1 -4.6°
Reaches altitude 10° 19:12:40 10° 301° (WNW) 8,454 8.2 -7.7°
Maximum altitude 19:33:42 47° 11° (N) 2,130 4.1 -12.7°
Enters shadow 19:38:29 18° 78° (ENE) 2,259 3.8 -13.8°
